RH
13 14 13 13 13 13 13 13 14 14 14 15 15 16 16 17 18 18 17 13 11 10 11 11 12 13 13 14 14 14 14 14 14 13 14 14 16 17 18 19 20 20 20 20 20 20 19 18 17 16 16 15 13 13 12 11 9 10 8 9 9 6 10 19 37 44 39 48 35 13 12 12 8 7 7 5 4 5 4 4 4 6 7 5 5 5 5 6
11 12 12 12 12 12 13 13 13 13 13 13 14 15 15 16 17 16 13 10 9 9 10 10 10 10 10 11 11 11 11 11 11 11 11 12 13 15 16 18 18 19 19 19 18 19 18 17 17 15 14 13 11 11 10 10 9 8 8 9 6 9 22 29 44 47 41 45 25 11 13 10 10 7 5 5 5 5 3 4 5 6 6 5 5 5 6 5
10 11 12 12 12 12 12 12 13 13 13 13 14 14 15 15 14 11 9 8 8 8 8 8 8 8 8 8 8 8 8 8 9 9 9 10 11 12 14 14 16 17 17 17 17 17 16 15 14 12 12 10 10 9 9 9 8 9 8 8 8 18 38 39 37 34 33 35 18 9 9 8 12 6 4 6 4 5 3 5 4 5 6 5 6 5 5 5
9 10 11 12 12 12 12 13 13 14 14 14 14 13 13 12 10 8 7 7 7 7 7 7 7 7 6 6 7 7 7 7 8 8 9 9 10 10 11 12 13 14 14 14 14 14 13 12 11 9 9 8 8 8 8 8 7 9 6 10 13 19 42 43 27 21 23 24 12 6 7 12 13 4 5 4 4 7 4 6 4 4 6 4 5 4 6 6
8 9 10 11 12 12 13 13 13 14 14 13 12 11 10 8 7 7 6 7 6 6 7 6 7 6 6 6 6 6 6 7 7 8 8 8 9 10 10 11 11 11 12 12 11 12 10 9 9 8 8 7 8 7 8 8 7 9 5 10 13 15 38 38 16 13 14 15 13 6 6 12 9 3 5 3 9 14 6 5 5 4 5 3 4 5 6 6
8 8 9 10 12 12 13 14 13 13 12 11 10 8 7 7 7 7 7 7 7 7 7 6 7 6 6 6 6 7 6 7 7 7 8 8 8 9 9 10 10 10 10 10 10 9 9 9 8 7 8 7 8 8 7 8 6 8 7 7 8 8 22 17 4 8 8 11 16 9 4 7 5 4 5 3 10 12 5 5 5 4 4 4 6 7 8 7
10 8 8 10 11 12 13 14 13 12 11 10 8 7 7 7 7 7 7 7 7 7 7 7 7 7 6 6 6 6 6 7 7 7 7 7 8 8 8 8 8 9 8 9 8 8 8 7 8 8 8 8 8 8 7 8 7 8 7 8 9 7 9 6 4 8 8 10 11 5 4 5 5 5 6 6 7 6 5 6 4 5 5 6 7 7 8 7
13 9 8 9 10 12 13 13 13 11 11 9 8 7 6 7 7 7 7 6 7 6 7 7 7 7 7 6 6 6 6 7 6 7 7 7 8 7 8 8 8 8 7 8 7 7 8 7 8 8 8 10 9 9 9 8 7 8 7 8 9 8 7 6 5 7 7 8 7 6 6 7 7 8 7 7 8 7 6 7 6 7 6 7 8 7 7 7
14 12 9 8 10 11 12 13 13 12 11 9 8 7 7 7 7 7 6 6 6 6 7 7 7 7 7 7 6 6 6 6 7 6 7 7 7 7 7 7 7 7 7 8 7 7 8 7 9 8 9 12 10 11 10 9 12 12 11 11 10 8 8 8 8 10 10 10 9 9 8 9 9 8 8 8 9 7 6 8 8 8 7 7 7 6 7 7
14 14 12 10 9 10 11 12 13 12 11 10 8 7 7 7 7 7 6 6 6 6 6 7 7 7 7 7 7 7 7 7 7 6 7 7 8 8 8 7 7 7 7 8 9 9 9 10 10 10 11 11 11 13 11 12 16 13 12 14 10 9 11 10 11 11 10 11 11 10 10 11 10 9 9 10 11 8 8 10 9 8 8 7 7 7 8 7
13 14 14 13 11 10 10 11 12 12 12 11 9 7 7 7 7 7 6 6 6 6 6 6 7 7 8 8 8 8 8 8 8 7 7 8 9 9 9 9 9 10 11 12 12 12 13 14 14 14 15 14 13 14 13 14 16 13 13 14 12 12 12 12 14 13 12 12 11 11 12 11 10 9 10 11 11 8 8 10 9 8 8 7 7 7 7 8
14 13 14 14 14 12 10 10 11 12 12 12 11 9 8 7 6 7 7 7 6 6 6 6 7 7 8 10 9 9 9 9 9 9 8 9 11 12 12 13 13 14 14 15 16 16 15 16 17 16 15 14 14 15 14 14 14 13 13 13 13 13 12 12 12 11 11 12 11 11 12 11 11 9 10 13 11 8 9 10 10 8 8 8 8 8 8 8
14 14 14 14 14 14 13 12 11 10 11 11 12 11 10 9 7 7 7 7 7 7 7 7 7 7 8 10 10 10 10 11 11 11 11 12 13 14 15 15 16 17 16 17 17 17 17 16 16 16 15 15 15 15 13 13 14 14 14 13 13 12 10 11 12 13 13 11 11 11 11 12 11 11 12 11 10 9 9 10 11 10 9 8 7 8 8 8
15 14 14 14 14 14 15 14 13 12 11 10 11 11 11 11 10 8 8 8 8 8 7 7 7 7 8 9 10 11 12 12 13 13 14 14 15 16 16 16 17 17 16 17 16 16 16 16 16 15 15 15 14 13 13 14 13 12 13 11 13 13 10 13 12 9 12 11 10 10 11 12 11 11 11 10 10 10 10 10 10 10 9 10 9 9 10 9
17 16 15 14 13 13 14 15 15 15 13 12 11 10 11 11 11 10 9 9 8 8 8 7 7 7 7 8 9 10 12 13 13 14 15 15 15 16 16 16 16 16 16 16 16 16 15 15 15 15 15 14 13 13 14 13 12 14 14 11 13 10 13 32 29 10 9 11 9 11 10 10 13 17 13 8 8 9 11 11 10 11 10 10 10 10 11 10
18 18 17 16 15 13 13 13 14 15 16 15 14 12 11 10 10 11 11 10 10 9 8 8 8 7 7 8 8 9 10 12 13 13 14 15 15 15 15 16 16 15 15 15 15 15 14 15 14 13 14 13 13 14 13 14 13 11 11 13 15 12 21 42 32 8 9 12 9 11 11 11 17 22 18 10 7 8 10 11 10 11 11 11 11 11 11 11
20 19 19 18 18 16 14 12 11 12 14 15 16 16 14 13 11 11 10 10 11 10 9 9 9 8 8 7 7 8 9 10 11 11 12 13 13 13 13 14 14 14 14 14 14 13 13 13 13 14 14 13 14 14 14 14 14 19 26 22 14 21 41 61 55 29 15 12 11 11 9 13 16 15 18 14 8 6 8 11 11 10 10 11 10 11 11 10
21 20 20 20 20 19 18 15 12 10 10 12 14 15 16 17 15 14 12 11 11 10 10 10 10 10 9 9 9 9 9 9 9 9 10 10 11 11 11 11 11 12 12 12 12 13 13 12 13 13 13 15 16 16 19 21 26 48 66 50 24 27 43 61 78 69 40 15 10 13 11 13 16 14 16 15 8 8 10 11 13 11 9 10 11 13 14 13
22 21 21 21 21 21 21 19 17 13 10 8 8 10 13 14 16 17 16 16 15 13 13 13 12 12 11 11 11 11 10 10 9 10 10 10 10 10 10 11 12 12 12 13 14 13 13 14 15 15 17 19 21 24 28 26 25 35 51 52 44 52 61 67 83 96 77 35 9 13 16 16 20 21 25 23 12 8 10 13 15 14 11 10 12 16 18 16
24 24 23 23 23 23 23 22 21 19 15 11 8 7 7 9 11 12 14 16 18 17 16 16 16 16 14 12 13 13 12 12 12 12 12 12 12 13 13 14 14 15 15 15 16 14 14 15 16 20 22 20 21 23 23 21 20 19 30 46 55 61 69 76 80 79 67 39 17 15 16 18 20 19 27 31 21 11 11 15 16 16 17 15 13 15 17 17
28 27 27 27 26 26 25 24 24 23 22 19 15 11 9 7 6 6 8 10 13 14 14 17 18 17 16 15 16 16 15 15 15 13 13 13 14 15 16 16 16 18 19 20 17 13 15 19 22 25 25 24 24 21 18 21 27 29 33 44 50 46 41 49 56 48 38 29 24 21 18 19 20 17 20 25 25 17 12 14 16 17 19 19 16 15 15 16
31 31 31 31 30 30 29 28 27 26 25 24 22 21 17 14 10 8 7 6 7 7 7 9 11 13 14 15 17 18 19 20 18 16 16 16 18 18 17 18 20 22 24 24 20 18 19 22 30 29 22 26 32 29 26 30 35 36 35 36 42 39 32 38 50 51 43 32 23 21 20 19 20 20 19 19 23 20 14 13 15 18 18 17 17 15 14 14
29 30 29 30 30 30 30 30 29 29 28 28 27 26 24 22 19 15 13 10 7 7 10 10 7 7 8 8 10 12 15 18 17 17 18 20 22 22 20 21 25 28 30 28 23 24 29 29 31 32 29 32 36 34 32 35 41 42 38 35 35 34 39 57 72 66 43 25 21 22 22 21 20 20 19 17 18 18 16 15 13 15 15 15 14 13 13 12
25 24 24 25 24 25 26 26 27 28 28 29 29 29 28 27 25 23 22 18 15 19 23 17 8 5 5 5 5 6 8 10 11 12 16 22 25 26 26 28 32 33 41 53 42 27 32 33 29 36 43 43 38 36 37 44 50 48 43 40 38 39 49 65 74 59 31 17 25 28 22 20 18 16 17 15 15 14 13 13 13 13 12 12 13 10 10 10
20 19 20 20 20 22 22 22 24 24 25 26 27 29 29 29 30 29 27 25 25 28 30 25 17 12 10 7 5 4 4 4 5 6 8 12 16 21 23 25 31 31 46 69 60 41 45 42 34 39 41 38 39 39 40 46 45 38 35 34 32 36 42 50 48 36 27 23 25 23 17 18 17 15 16 13 14 16 13 11 10 10 10 8 8 8 7 6
15 14 15 14 15 16 17 18 18 19 21 21 23 24 26 28 28 29 29 28 32 39 44 44 36 28 24 19 15 13 9 6 6 6 6 6 6 9 11 12 17 27 43 49 49 61 67 44 30 35 30 25 29 28 27 29 22 18 22 21 28 34 27 29 35 28 26 22 18 20 20 19 17 23 33 26 19 18 14 14 11 7 8 6 5 5 4 5
9 9 9 8 9 9 9 10 10 12 12 13 16 16 18 21 22 26 24 27 44 57 57 53 44 37 34 28 26 22 18 17 15 12 10 8 7 5 7 8 5 13 24 19 31 68 74 41 21 20 16 12 13 12 13 11 6 13 23 20 39 57 33 17 29 29 22 18 15 14 11 10 11 23 33 26 32 38 20 10 9 5 4 2 4 5 2 4
6 6 5 5 6 5 6 6 5 6 5 6 8 7 10 12 12 14 14 28 59 69 60 52 42 37 35 33 35 33 29 28 26 23 19 15 15 11 10 11 8 9 14 14 23 39 45 34 21 14 14 16 16 11 11 13 11 19 23 18 36 53 32 15 22 24 19 14 9 10 18 28 22 16 17 20 43 59 39 23 15 3 4 3 -0 4 3 3
5 5 5 5 6 5 5 5 5 5 5 5 5 4 6 3 4 13 23 43 63 61 52 44 35 32 32 31 32 31 32 34 31 27 27 24 22 19 17 15 14 13 11 14 16 15 26 32 23 21 21 18 16 12 24 43 38 25 20 23 33 32 19 16 14 12 12 7 3 15 35 47 27 5 25 54 66 64 60 66 51 15 6 7 -0 2 2 1
7 7 7 7 7 7 8 7 7 8 7 7 6 7 6 4 13 25 39 55 54 41 35 31 25 21 19 23 27 28 31 36 37 34 32 31 28 25 24 20 18 18 16 17 15 13 27 29 18 19 18 13 9 9 32 52 34 15 12 15 19 12 6 9 10 13 18 17 20 25 37 55 41 13 32 67 74 71 72 80 77 44 17 10 3 2 3 1
11 11 10 11 10 10 10 9 10 10 9 10 8 9 9 11 23 32 43 54 43 30 27 27 32 27 23 34 36 31 29 27 30 32 32 33 32 28 28 29 26 23 21 21 20 18 23 24 20 20 15 11 8 4 16 24 10 5 9 5 5 17 32 30 23 26 26 25 30 34 49 75 70 45 48 63 70 84 81 61 61 50 21 8 4 1 2 2
13 13 12 13 12 11 11 10 10 9 9 9 7 11 15 17 25 31 35 35 27 28 28 26 33 30 29 34 24 23 40 47 42 38 32 27 30 34 32 34 34 32 37 47 53 53 51 53 55 53 42 30 26 19 13 16 18 17 17 14 9 30 72 83 67 56 45 40 37 43 69 88 82 68 67 68 67 83 90 65 45 32 13 6 7 3 3 3
13 13 12 11 10 10 9 8 8 8 8 7 7 14 18 14 16 18 18 19 22 31 27 18 17 15 16 17 14 32 56 60 55 54 49 36 44 65 62 51 43 42 62 82 85 85 87 87 85 86 79 63 55 51 42 51 67 60 50 52 43 48 81 100 97 90 79 73 68 70 85 86 84 85 74 69 73 80 91 83 55 32 20 16 13 11 7 5
11 11 10 9 9 8 9 8 8 8 8 8 9 15 18 14 12 10 11 17 20 21 22 18 12 11 12 8 27 60 60 48 49 51 48 35 35 58 65 61 62 65 81 87 77 81 91 90 86 89 93 86 78 72 67 78 95 92 81 77 68 73 93 97 96 101 97 91 86 85 84 70 65 69 63 66 77 73 75 84 72 44 30 27 22 20 19 13
10 11 10 10 10 10 10 10 9 10 9 9 11 15 15 12 13 10 9 12 10 9 17 20 11 11 16 12 39 73 61 50 53 35 28 29 23 25 27 29 42 56 69 72 72 84 90 87 88 93 99 100 88 75 74 80 85 90 97 94 75 71 89 91 80 83 84 81 79 71 66 58 50 50 51 54 58 50 48 64 71 52 35 37 40 40 37 28
11 11 10 11 11 10 11 11 11 12 10 10 14 18 16 13 13 11 8 8 8 8 11 14 11 24 47 52 63 79 65 58 61 40 35 48 45 47 48 40 37 37 39 51 70 81 75 71 77 85 97 101 83 70 79 89 84 75 77 87 83 73 85 92 86 87 87 81 73 63 60 60 54 54 55 51 45 44 54 69 78 77 67 63 66 64 53 43
11 10 10 11 11 10 11 11 10 10 10 10 16 23 26 25 22 16 11 7 8 9 9 11 14 30 60 67 68 86 79 60 61 64 69 74 72 80 87 83 80 69 52 48 55 50 36 31 33 45 71 87 73 51 51 67 81 80 76 82 88 83 80 81 85 89 88 77 59 48 50 47 47 60 64 67 72 70 81 95 92 94 98 92 89 84 69 55
8 8 8 8 9 9 8 8 9 9 8 10 17 27 30 31 29 19 13 8 6 9 11 12 14 20 34 34 38 71 83 67 66 78 86 86 79 80 83 81 81 73 56 48 48 42 33 26 17 13 28 51 62 59 58 61 63 66 69 65 65 70 67 67 77 73 64 59 44 35 39 35 43 57 48 62 93 88 87 102 91 80 93 100 98 94 89 78
7 7 8 9 9 8 7 8 8 7 10 14 22 29 26 27 26 16 11 8 5 9 11 14 16 17 21 19 19 40 58 62 67 70 76 80 72 69 71 63 53 46 43 42 41 42 43 41 34 22 16 23 38 53 63 59 42 43 58 57 57 68 65 65 80 78 67 67 59 50 51 43 44 49 41 60 91 87 83 93 83 72 82 95 96 93 95 92
7 9 12 11 9 8 8 8 7 10 15 14 20 28 25 23 20 10 7 7 6 9 12 15 18 16 17 19 17 21 26 33 39 38 43 50 49 52 53 41 30 28 32 30 29 37 41 38 35 32 26 23 24 28 36 37 34 50 73 77 75 78 74 74 81 80 76 77 71 64 59 47 41 50 66 84 92 90 91 88 80 80 76 72 73 77 85 88
9 11 12 10 8 9 8 8 9 12 12 10 20 31 26 18 14 7 6 7 6 9 12 16 20 19 18 18 18 19 19 20 23 26 26 25 34 49 52 43 32 29 32 34 39 48 44 34 33 33 29 27 26 24 28 35 37 43 58 69 75 80 84 86 83 75 73 72 69 70 66 51 44 49 58 65 72 85 91 79 73 81 82 77 75 77 86 92
11 11 11 9 9 9 8 8 9 11 21 34 38 29 15 9 8 7 7 7 7 9 12 17 21 22 21 20 19 19 20 19 20 23 22 23 39 53 48 37 28 25 32 38 43 44 37 30 32 34 32 29 27 24 23 28 27 25 31 42 55 65 70 73 76 74 73 68 59 60 63 53 45 48 47 45 58 74 74 59 50 54 63 69 65 64 81 98
12 11 11 10 10 9 8 8 8 10 25 37 28 13 7 7 7 8 8 8 8 9 13 18 23 25 23 23 23 22 23 23 21 24 24 25 36 40 31 26 25 26 31 36 38 37 34 32 27 23 22 20 20 21 16 15 16 18 21 21 23 28 27 34 44 44 44 47 42 43 51 44 34 39 40 34 41 55 60 54 42 33 31 30 26 32 61 90
12 11 11 10 9 9 8 8 8 8 12 13 9 6 8 8 7 8 9 11 11 12 16 22 26 27 26 25 25 24 25 24 22 25 28 28 31 31 29 31 31 33 36 35 34 31 30 34 30 24 24 24 24 23 23 35 48 44 33 27 25 21 20 25 28 27 32 35 30 33 42 36 26 27 25 19 21 29 40 44 34 24 22 20 12 13 44 77
11 11 10 10 9 8 8 7 8 8 7 7 8 9 9 8 9 8 9 15 18 18 22 28 29 30 29 27 26 26 26 27 25 26 29 30 33 34 34 32 30 35 38 34 32 31 30 31 29 24 23 22 21 20 27 48 59 45 30 32 34 32 37 42 37 38 46 42 34 34 37 33 28 24 21 20 18 18 26 32 26 20 25 29 20 18 47 74
10 10 9 9 8 7 7 7 7 8 8 8 8 9 9 10 12 10 8 16 25 27 30 35 35 33 32 30 29 27 26 27 27 26 28 31 34 36 35 34 35 37 35 32 33 36 34 29 25 25 24 20 19 19 22 28 30 25 24 29 30 27 29 32 29 27 30 38 44 40 35 33 27 21 20 19 19 23 31 32 28 28 32 36 36 33 43 57
9 8 7 7 7 7 7 7 7 8 8 8 8 9 10 10 16 19 16 20 29 33 37 41 39 38 37 34 33 31 29 29 28 29 32 33 36 40 38 39 43 39 31 30 31 30 30 28 27 29 27 22 22 23 23 23 22 22 22 19 19 20 18 17 19 16 20 38 48 35 30 36 30 22 19 14 14 22 28 28 28 32 31 28 34 36 30 38
8 7 6 6 6 7 7 7 7 7 8 8 7 9 11 14 22 30 30 32 36 38 39 42 41 41 42 39 36 35 32 30 29 30 34 35 39 43 38 36 44 46 40 39 38 31 27 25 28 32 30 26 26 25 25 26 24 23 23 21 19 19 18 17 18 19 25 37 38 24 26 36 34 26 18 12 15 17 18 20 19 21 24 21 24 28 24 27
6 5 6 5 6 7 7 8 9 9 10 10 12 16 20 23 34 43 44 43 43 42 41 40 40 41 43 42 41 39 35 33 32 35 39 40 42 45 41 39 47 53 51 49 46 40 32 26 29 32 28 26 28 28 28 28 27 26 24 22 21 20 20 21 21 22 23 23 19 16 19 22 21 19 13 10 13 13 12 17 15 12 15 15 15 17 18 21
5 5 5 5 6 7 7 9 10 13 17 16 19 28 33 37 45 51 51 49 46 44 43 41 39 39 41 43 43 41 40 36 33 39 45 42 41 45 46 46 50 54 54 51 48 48 47 41 38 36 30 25 26 31 31 29 29 28 24 21 23 23 23 23 21 21 19 15 15 18 19 17 13 11 12 14 16 16 17 18 15 12 9 9 11 11 13 20
5 5 5 5 8 10 12 16 17 22 29 29 32 41 44 46 50 49 49 51 48 45 43 41 40 39 40 44 44 43 42 36 31 37 43 40 41 45 44 44 49 52 54 51 49 52 53 47 41 39 33 26 28 33 32 29 28 27 24 22 22 22 22 22 22 20 18 14 15 18 18 16 14 13 21 30 30 27 27 25 20 17 13 10 8 7 9 12
7 10 10 11 17 23 27 34 39 43 44 41 45 52 51 51 53 50 48 50 49 47 44 41 40 40 41 45 46 43 40 36 33 37 41 42 44 46 45 47 50 50 51 52 51 51 50 46 42 42 36 29 31 33 30 29 29 26 23 23 23 23 22 19 17 15 13 13 15 19 20 21 27 33 41 48 49 45 42 40 34 27 22 19 15 12 12 9
Wind_Speed
23 22 22 21 20 19 19 19 19 20 21 21 22 22 22 21 22 22 22 22 22 22 22 22 23 23 24 25 26 26 26 27 27 27 27 27 27 27 27 27 27 27 27 27 27 27 27 26 26 25 25 25 25 25 25 26 26 26 26 24 23 22 20 18 11 13 19 25 33 34 35 36 30 25 29 32 30 31 30 30 28 26 28 30 28 23 19 21
20 20 20 19 18 17 17 17 17 17 18 19 20 20 20 20 20 21 21 21 21 21 20 21 21 22 23 24 24 25 25 26 26 26 27 28 27 27 27 27 27 26 26 27 27 27 26 26 26 25 26 25 26 26 25 25 25 25 25 24 24 20 17 15 15 20 25 29 35 35 36 37 30 26 28 29 29 32 32 29 28 28 29 29 26 24 23 22
18 18 18 18 17 16 16 15 15 16 16 17 17 17 18 18 19 19 19 19 19 19 19 19 20 20 21 21 22 22 23 24 25 25 26 26 27 27 26 26 26 26 26 26 26 26 26 26 26 26 26 25 25 25 25 25 25 25 25 25 22 18 16 19 27 32 34 34 36 34 33 33 30 29 27 26 29 33 31 28 27 27 27 29 26 23 23 24
16 17 17 17 17 16 15 15 14 14 14 15 15 15 16 16 17 17 17 17 17 17 17 17 18 18 19 19 20 20 21 22 22 24 24 25 25 25 25 26 25 26 26 26 26 25 25 25 25 25 25 25 25 24 24 24 23 24 26 24 21 21 18 21 32 36 38 40 36 31 27 25 29 29 26 25 28 30 27 26 27 27 29 30 26 23 24 26
14 15 16 16 16 15 15 14 14 13 13 13 14 14 14 15 15 15 15 15 15 15 16 16 16 16 17 17 18 18 19 20 20 21 22 23 23 24 24 24 24 24 24 24 24 24 24 24 24 24 23 23 23 22 23 22 23 24 24 23 24 27 24 25 37 35 36 37 32 30 23 20 28 28 23 22 23 26 25 26 30 31 31 28 22 22 26 28
12 13 14 15 15 15 14 14 13 13 13 13 13 13 13 14 14 14 14 14 14 14 14 14 14 15 15 16 16 17 17 18 18 19 20 21 21 22 22 22 23 22 23 23 22 22 22 22 22 22 22 22 21 21 21 21 24 23 21 23 26 30 30 33 35 26 26 29 28 30 24 22 30 26 21 22 24 27 28 29 32 31 28 24 18 21 28 30
11 11 12 13 14 14 13 13 13 13 13 13 13 13 13 13 13 13 13 13 12 12 13 13 13 13 14 14 15 15 16 17 17 17 18 19 19 20 20 21 21 21 21 20 21 21 21 21 21 21 20 19 19 19 19 21 22 21 21 23 26 28 31 34 28 18 18 23 27 30 25 26 28 23 23 26 26 30 31 31 31 29 26 23 21 26 31 30
10 10 10 11 12 12 12 12 12 13 13 13 13 12 13 13 13 12 12 12 12 12 12 12 12 12 13 13 13 13 14 14 15 15 16 16 17 17 18 18 19 19 19 18 19 19 19 19 19 19 18 17 19 19 20 21 19 20 21 23 27 27 29 30 23 18 20 22 26 28 24 25 26 25 28 28 26 32 33 29 30 29 28 27 26 28 30 29
9 9 9 9 11 11 12 12 12 13 13 13 13 13 13 13 12 12 12 12 11 11 12 12 12 12 11 11 11 11 11 11 11 12 13 13 14 14 15 16 16 16 16 16 16 17 18 18 18 19 19 19 20 20 20 18 17 21 21 24 29 25 25 27 21 20 24 24 26 28 25 26 29 29 30 26 26 35 31 25 30 31 30 30 27 27 28 28
9 9 9 8 9 10 11 11 12 12 13 13 13 13 13 13 13 12 12 12 12 12 12 12 11 11 10 10 9 9 8 8 8 10 10 10 11 11 12 13 13 14 14 14 14 15 16 16 17 17 17 19 18 18 18 16 20 24 22 26 27 22 23 25 21 24 26 25 27 27 26 29 31 29 29 25 28 37 29 25 32 31 30 30 28 27 27 29
9 9 9 8 8 9 10 11 11 12 13 13 13 13 14 14 13 13 13 12 12 12 12 12 12 11 10 9 9 8 8 8 7 8 9 8 9 9 10 11 11 12 13 13 14 14 14 14 15 15 16 18 17 18 18 18 22 23 21 24 23 21 24 23 22 26 24 24 27 26 26 29 29 27 24 24 32 37 26 26 33 31 30 31 30 28 26 29
9 9 9 8 8 8 9 9 11 11 12 13 14 14 14 14 14 14 13 13 13 12 13 13 12 12 11 10 10 9 8 8 8 8 8 8 9 10 10 11 11 12 13 14 14 14 15 15 16 17 18 16 17 20 19 19 21 21 22 23 22 24 24 22 23 26 24 26 29 25 25 27 28 26 21 26 38 33 22 27 32 31 30 31 32 29 27 31
9 9 9 9 8 8 8 9 9 10 12 13 14 14 15 15 14 14 14 13 13 13 13 13 13 13 12 12 12 11 10 9 9 9 9 9 10 10 12 12 13 14 14 15 16 16 16 16 18 19 17 17 20 20 17 19 20 21 22 22 24 26 25 23 24 27 26 28 28 23 26 27 27 26 24 33 40 30 24 29 32 32 31 32 33 30 29 32
9 9 9 9 9 9 8 9 9 9 10 12 13 14 15 15 15 15 15 14 14 14 14 14 14 14 14 14 14 13 12 11 11 11 11 11 12 13 13 14 15 15 16 17 17 17 18 18 19 19 19 21 23 19 17 20 21 21 23 23 24 25 24 24 28 30 27 28 28 25 27 26 25 26 29 39 39 29 28 32 32 33 33 33 34 31 32 34
10 10 10 10 10 10 9 9 9 9 9 10 11 13 14 15 15 16 15 15 15 14 15 15 15 15 16 16 15 15 14 14 14 14 14 14 14 15 15 16 17 17 18 18 18 19 19 20 21 21 21 22 21 20 20 22 21 22 24 23 24 25 20 20 30 31 25 28 28 26 27 25 21 25 35 43 35 28 30 33 34 34 34 34 34 32 33 36
10 10 10 10 10 10 10 10 10 10 10 10 10 11 12 13 14 15 15 15 15 15 16 16 16 16 16 17 18 17 16 17 17 17 17 17 17 17 17 18 18 19 20 20 20 20 21 21 22 22 22 23 21 22 23 23 24 24 24 23 24 25 17 18 32 32 27 31 29 26 27 24 20 25 40 44 33 28 29 32 35 35 34 34 33 33 33 37
10 10 10 10 11 11 11 11 11 11 11 10 10 10 10 11 12 13 14 15 15 16 16 17 17 17 17 18 18 17 17 18 19 19 19 19 19 19 19 20 20 21 21 21 22 22 22 23 23 23 24 23 22 22 23 22 22 21 22 23 22 20 14 15 26 30 30 32 29 25 24 23 22 30 43 43 33 29 27 29 33 34 34 32 32 33 33 36
11 11 11 11 11 11 10 11 11 11 11 11 11 11 11 11 11 11 12 13 14 15 16 16 17 18 18 18 17 18 18 19 19 20 20 20 20 20 20 20 20 21 21 22 22 23 23 23 24 24 24 23 23 22 21 20 18 16 16 19 21 20 17 14 17 25 30 31 28 23 21 21 23 30 42 44 34 30 30 28 30 33 34 32 31 32 33 35
11 11 11 11 11 11 10 10 10 10 10 10 11 11 11 12 12 12 11 12 12 13 14 15 17 18 19 18 18 19 19 19 20 20 20 20 20 20 20 20 20 20 21 22 22 23 23 23 23 23 23 24 23 21 21 23 25 23 20 21 21 17 14 13 18 27 30 31 30 25 22 23 24 28 37 44 37 31 32 30 29 32 33 33 32 32 34 35
12 12 12 12 12 12 11 10 10 9 9 9 10 10 11 12 12 13 13 13 13 13 13 14 16 17 18 17 17 19 19 20 20 21 20 21 20 20 20 21 21 21 22 22 23 24 23 23 23 23 26 26 26 25 26 28 28 27 25 24 22 19 14 13 23 34 33 31 31 30 27 25 28 30 33 40 42 35 32 31 30 31 32 34 34 34 34 35
13 13 13 13 13 12 12 11 11 10 9 9 9 9 10 11 11 13 13 14 14 14 14 15 16 17 17 15 16 18 18 19 21 21 21 21 21 22 22 22 22 22 23 24 25 24 23 23 23 25 27 27 28 28 27 26 23 23 24 25 27 28 25 22 30 38 37 33 31 32 33 29 29 31 33 37 42 41 35 31 31 31 33 35 35 35 35 35
13 13 13 13 13 13 13 12 12 11 11 10 10 10 10 10 10 11 12 13 13 14 15 16 17 18 17 16 16 17 18 20 21 20 20 21 21 23 23 22 22 23 24 26 27 26 24 23 25 29 28 26 27 27 24 24 23 23 25 26 28 30 29 27 31 36 38 36 33 31 33 32 29 29 33 36 39 40 37 32 30 30 33 34 34 34 35 35
14 14 14 14 14 14 14 13 13 13 12 12 11 11 11 11 11 11 12 12 12 13 14 15 16 17 17 17 17 18 20 22 23 20 19 20 21 23 23 21 21 23 24 26 28 26 24 25 28 29 26 26 28 27 26 25 24 24 25 28 29 29 27 24 28 36 39 36 32 32 34 32 30 29 33 36 36 36 36 34 30 29 32 33 33 33 33 34
16 16 15 16 16 15 15 15 14 14 14 13 13 13 12 12 12 12 12 13 13 13 14 14 15 16 16 15 16 18 20 23 25 22 18 19 23 23 23 22 22 24 23 22 27 26 23 27 30 25 23 26 28 28 27 26 25 26 27 28 29 29 28 25 30 40 40 33 29 32 35 32 29 31 34 35 35 35 34 34 32 29 29 31 32 31 31 31
17 17 16 16 16 16 16 16 15 15 15 14 14 14 14 14 14 13 14 15 15 14 14 14 14 15 15 14 15 17 19 20 24 22 17 19 24 24 24 24 23 23 22 21 26 26 25 29 29 27 29 28 27 28 28 28 29 30 29 31 31 31 33 33 38 43 38 31 30 33 36 33 29 31 35 36 35 34 33 32 32 31 29 29 29 29 29 29
16 15 15 15 15 15 15 15 15 15 15 15 14 14 14 14 14 14 15 16 16 15 14 14 14 14 14 14 14 16 18 19 21 21 18 19 23 24 24 26 24 23 23 25 25 21 24 31 28 28 33 31 30 31 30 31 32 31 31 31 30 30 34 35 36 38 33 28 32 35 34 32 29 28 28 30 32 34 32 29 28 29 28 27 26 27 27 27
12 11 10 10 10 10 10 10 11 12 12 12 13 13 14 14 14 14 15 15 15 16 15 14 14 15 15 14 14 16 17 17 19 19 18 18 20 20 20 23 24 22 24 27 24 20 23 30 29 28 30 29 30 30 29 31 31 28 27 27 24 24 30 31 27 29 29 25 29 33 32 31 28 24 23 24 25 28 29 27 25 25 26 26 25 25 27 27
7 6 6 6 6 6 6 6 6 7 7 8 9 10 10 11 12 13 14 14 13 15 17 15 15 16 16 15 15 17 18 18 19 18 17 16 18 18 17 20 20 18 22 24 23 22 24 28 28 24 23 22 22 23 24 26 24 22 23 22 20 21 24 24 21 22 23 23 26 26 25 27 25 21 20 20 18 22 27 29 29 26 23 25 26 25 26 27
4 4 4 4 4 4 5 5 5 5 5 6 7 7 8 8 9 9 10 11 11 14 16 17 17 17 17 17 16 18 19 20 21 19 17 17 18 18 18 19 18 17 20 20 19 20 21 24 25 21 20 20 18 18 18 18 18 18 20 18 18 20 20 19 19 19 19 24 25 20 17 21 23 20 15 14 19 25 25 22 26 28 23 22 24 25 26 27
3 3 3 3 3 3 4 4 5 5 5 6 6 6 7 8 8 7 7 8 10 13 15 17 18 17 16 16 16 18 18 19 20 19 18 18 17 18 18 18 17 17 18 18 17 17 17 22 24 20 20 20 19 18 15 16 18 18 18 17 18 20 20 19 19 18 21 24 21 18 16 17 22 19 8 8 18 26 25 19 20 24 22 21 22 23 24 26
2 3 3 3 3 3 4 4 5 5 6 6 7 7 7 8 8 8 7 8 11 14 15 16 16 15 14 14 14 17 19 19 20 20 19 18 18 18 19 19 19 18 19 19 19 19 20 24 24 22 22 20 20 19 16 18 20 19 19 18 18 18 18 21 20 19 23 23 18 18 16 15 20 15 4 7 14 20 24 23 20 20 24 25 25 24 23 24
2 2 3 3 3 4 4 5 5 6 6 7 7 7 8 8 8 9 9 10 12 14 15 16 16 16 14 13 13 15 17 18 19 19 19 19 17 18 18 19 20 18 16 16 16 17 19 21 20 20 20 20 19 19 18 20 20 18 17 18 16 13 13 17 20 20 23 21 17 16 14 16 19 14 8 12 18 18 18 22 24 22 24 28 28 27 26 25
1 2 2 3 4 4 4 5 5 6 6 7 8 9 9 9 9 10 11 13 14 14 15 16 18 18 17 16 15 14 14 14 15 16 18 18 14 14 16 18 19 16 11 12 14 14 14 14 15 16 17 19 19 16 15 15 17 18 16 16 16 11 12 17 18 18 18 19 19 15 14 18 18 15 15 16 19 17 15 18 22 21 22 29 31 31 31 29
1 2 2 4 4 5 5 6 6 7 7 8 9 10 10 10 10 11 12 14 15 15 16 19 19 19 19 17 13 12 14 16 16 16 17 18 15 14 16 18 18 15 13 15 16 15 15 15 15 15 14 17 19 15 12 11 13 18 18 17 18 14 14 17 17 16 15 17 20 17 18 22 21 21 23 21 19 19 17 17 21 26 30 33 33 33 34 34
2 2 3 4 5 6 6 7 7 8 9 10 11 12 12 12 13 14 13 15 18 17 17 19 20 20 21 18 12 13 15 14 16 19 18 19 20 19 19 20 20 19 18 20 18 15 15 15 14 13 12 16 21 20 18 16 16 16 15 18 21 20 17 19 21 21 21 22 23 22 26 30 30 31 31 30 30 30 28 25 24 30 35 33 30 30 29 30
2 2 3 4 6 7 7 8 9 10 11 12 13 14 14 14 14 15 15 16 19 20 18 20 21 18 16 12 7 13 17 13 14 20 19 17 19 19 19 20 21 23 23 22 19 17 18 17 16 16 14 17 24 24 20 19 18 18 20 21 21 21 20 23 25 24 24 27 27 28 30 31 32 32 30 32 35 33 30 25 20 21 26 27 28 28 25 24
4 5 5 6 7 8 9 9 10 12 14 15 16 16 17 17 16 16 18 19 21 23 22 21 19 16 14 13 11 13 19 19 18 20 18 15 15 14 14 14 15 18 21 21 22 24 25 26 24 22 18 18 24 28 25 23 21 20 21 19 19 21 23 26 28 27 27 29 32 32 32 32 32 30 26 25 25 24 20 18 17 18 20 22 23 26 28 27
7 8 8 8 9 9 11 12 13 15 17 18 19 17 17 19 20 19 21 24 24 24 25 23 21 20 20 21 19 14 15 20 19 19 18 15 16 16 16 17 18 22 25 25 27 28 29 31 30 28 25 23 24 25 25 24 23 22 21 20 22 26 26 25 26 29 31 33 37 38 35 35 33 30 28 23 18 20 19 17 19 21 21 21 21 23 26 26
9 10 10 10 10 11 13 14 17 19 20 20 20 19 18 20 23 23 24 27 28 27 26 25 24 25 24 24 24 20 20 22 20 20 20 18 20 23 23 24 28 31 31 30 31 32 31 31 32 30 28 29 30 27 26 27 27 25 24 24 25 27 27 26 24 26 30 30 32 35 35 35 34 32 29 22 18 22 23 22 24 24 22 22 22 23 25 25
13 14 13 13 13 14 16 18 21 22 23 23 23 22 23 23 26 29 28 27 29 29 28 27 26 27 26 26 27 26 27 28 28 28 28 26 27 28 30 33 34 35 35 34 35 35 33 34 35 32 30 32 33 32 32 33 31 27 26 27 28 28 27 28 28 28 29 28 28 32 35 35 34 30 23 17 18 22 22 23 24 24 25 28 28 27 28 28
17 18 17 17 17 18 20 22 24 25 26 26 24 23 25 27 30 34 33 30 29 30 30 29 27 27 28 28 29 29 30 31 32 33 33 32 29 27 32 38 36 34 35 35 35 35 35 36 36 34 32 32 32 32 33 34 33 31 30 31 31 29 26 26 28 29 31 31 31 34 35 33 33 31 27 24 25 25 25 26 24 21 23 27 27 26 26 29
21 21 21 21 22 23 24 26 27 27 25 23 23 26 30 31 32 35 35 34 32 31 31 30 28 28 28 29 30 30 31 33 33 34 34 33 28 27 34 40 39 36 35 34 36 39 39 38 36 35 34 34 33 32 33 34 35 35 35 34 34 32 30 30 31 33 35 37 37 38 38 36 35 33 30 30 33 34 35 37 35 32 31 30 31 31 28 28
24 25 25 26 26 27 27 29 30 30 27 25 26 31 34 34 34 35 35 36 35 34 33 31 29 29 29 29 31 31 32 34 35 34 34 32 30 33 38 40 39 38 36 35 37 40 40 37 37 38 38 39 36 34 34 35 35 35 36 37 38 38 38 38 39 41 42 43 43 44 44 42 40 40 38 38 40 41 41 42 42 42 43 43 44 42 35 29
27 28 28 29 30 31 31 32 32 32 33 33 33 34 35 36 36 36 34 36 37 35 34 32 31 30 30 30 31 31 31 34 35 34 34 33 34 38 39 38 38 39 40 40 40 40 39 37 38 38 38 38 35 33 33 30 29 32 35 37 39 40 40 40 40 41 42 43 44 46 46 44 44 47 47 46 47 47 46 46 46 46 47 48 49 48 43 38
30 31 31 32 32 33 34 34 35 35 36 36 35 35 35 36 39 39 35 34 37 37 35 33 31 31 31 31 32 31 31 33 35 35 35 35 35 37 39 39 40 42 43 43 40 39 39 39 40 40 40 40 37 35 34 31 31 35 37 37 37 37 36 35 35 38 40 42 45 47 48 47 47 47 46 46 48 50 49 48 49 49 49 49 50 49 46 42
32 34 35 35 36 36 36 36 36 36 37 37 36 36 36 35 38 42 39 34 35 36 34 33 32 32 32 32 33 33 32 32 34 35 36 37 36 36 38 40 41 43 44 43 40 38 39 41 42 42 42 41 40 39 39 38 39 41 41 41 40 40 40 40 42 45 46 46 47 48 49 51 51 48 47 47 48 48 48 48 49 50 52 52 52 51 49 47
35 36 37 37 38 38 38 39 38 36 37 38 37 36 37 36 36 40 42 37 35 35 33 32 33 32 32 33 33 34 34 33 33 35 36 37 36 36 37 37 40 45 46 43 41 40 40 40 40 41 42 42 41 41 41 42 43 43 43 45 45 44 45 48 50 50 49 49 50 49 49 52 52 49 48 49 49 49 50 51 51 51 52 53 54 54 55 54
38 39 39 39 39 39 38 39 39 38 38 39 39 37 38 37 35 37 40 39 37 35 32 32 32 31 32 34 34 35 36 34 33 34 36 36 37 38 39 37 38 42 45 44 43 42 41 40 39 40 42 41 41 42 42 43 45 45 45 46 45 45 46 48 50 49 48 49 52 51 50 51 51 49 50 51 51 53 53 54 55 54 53 54 56 57 58 58
40 40 41 40 39 39 38 37 38 38 38 39 39 38 38 38 35 35 37 38 36 34 33 33 32 31 31 33 35 36 37 36 34 34 35 36 38 40 40 37 36 38 41 43 43 44 44 42 41 42 42 41 42 43 43 43 44 45 45 45 45 46 47 48 50 50 48 50 52 52 52 52 51 51 52 53 53 55 55 54 54 54 54 56 58 59 60 60
41 41 41 40 39 39 38 37 37 37 38 40 39 38 38 37 34 34 34 35 36 34 33 34 34 33 32 32 34 36 37 39 37 34 34 36 38 39 38 37 37 38 40 42 43 43 43 43 42 43 43 42 42 43 43 42 43 44 46 46 45 46 47 48 48 47 47 49 50 50 52 53 51 50 52 52 51 52 53 55 55 54 55 57 59 60 60 62
40 40 41 40 39 38 39 39 39 38 38 40 39 38 38 37 35 34 33 33 35 35 34 34 34 34 33 33 34 35 37 41 39 34 34 36 38 39 39 38 37 38 40 41 41 41 42 44 44 45 45 44 42 44 44 43 43 46 48 47 46 46 46 45 45 46 47 49 49 50 53 53 51 49 49 50 50 48 49 51 53 53 53 55 57 59 60 61
39 39 40 40 39 38 38 38 38 39 40 40 38 37 38 38 37 37 35 33 33 34 35 35 35 35 34 34 36 37 39 41 39 35 35 37 39 40 40 39 38 39 40 40 40 40 42 44 44 45 46 45 43 44 44 43 46 49 48 45 44 44 45 46 47 49 48 47 48 50 52 51 49 47 46 47 47 45 43 44 47 47 46 48 51 54 56 57
Wind_Direction
275 274 274 273 271 270 268 266 263 262 260 259 259 259 260 262 263 263 264 264 262 261 259 259 258 258 258 258 259 259 260 260 260 259 256 254 253 253 252 251 250 250 249 249 248 247 247 247 247 246 246 245 245 243 242 241 240 240 239 239 236 233 231 222 229 247 233 235 242 247 253 255 254 242 241 248 251 252 252 252 249 245 245 247 251 249 241 239
275 273 272 271 271 271 270 268 266 264 261 259 258 258 259 260 262 263 264 264 263 262 261 260 259 258 258 259 260 261 261 261 260 259 256 254 253 252 251 250 249 248 247 247 246 245 246 246 246 246 245 244 243 242 241 240 238 239 238 236 234 232 228 216 213 223 224 233 243 245 249 254 256 249 246 247 247 248 249 249 246 244 244 246 246 245 244 241
276 272 270 270 271 272 273 272 269 265 262 259 257 256 258 260 263 264 264 264 263 262 261 260 259 259 259 260 261 262 261 260 260 258 256 254 252 251 250 250 249 247 246 245 245 245 244 244 244 244 244 243 242 242 241 240 238 238 237 235 232 222 220 223 219 222 225 232 243 247 252 256 253 253 249 240 242 246 249 250 246 244 244 245 243 240 243 243
280 274 270 269 271 273 274 273 270 266 262 259 257 257 259 261 264 264 264 263 263 262 261 260 260 260 260 261 261 260 260 259 258 256 256 254 253 251 250 250 248 247 246 245 245 244 243 243 243 243 243 244 243 243 242 241 239 237 236 232 226 214 212 233 232 231 233 236 248 255 259 258 249 251 249 239 241 247 248 248 245 241 240 240 240 240 242 245
289 279 271 270 271 273 275 273 269 265 262 259 259 259 260 262 263 263 264 263 264 263 263 262 262 261 260 260 259 259 258 257 256 254 254 252 251 251 250 249 248 247 246 245 244 243 243 242 242 243 243 244 243 242 241 240 238 237 235 227 225 217 209 231 239 240 242 242 253 257 253 250 246 247 248 240 237 243 243 239 241 238 239 245 243 242 244 246
300 287 274 269 270 273 274 273 270 265 262 261 261 261 261 261 262 262 263 263 266 266 267 266 265 264 263 261 260 258 256 255 254 252 250 249 248 248 248 248 247 246 245 244 243 242 242 241 241 240 241 242 241 241 239 238 238 236 232 228 234 230 223 238 248 255 255 244 245 249 241 236 241 242 244 240 232 240 242 239 244 244 249 257 245 239 245 246
309 296 279 269 268 271 273 272 270 266 264 263 262 261 259 259 260 260 262 265 268 271 272 271 269 269 267 265 263 260 256 254 254 250 248 246 246 246 245 246 245 244 243 241 241 239 238 237 237 237 238 239 237 237 236 236 236 232 228 228 236 237 235 246 252 256 252 235 235 244 239 234 243 245 242 240 237 245 246 246 253 256 258 257 242 239 245 247
316 308 289 273 269 270 272 271 269 266 263 263 262 260 258 257 258 260 264 267 271 274 274 273 272 271 269 267 264 260 255 254 254 249 246 244 243 244 243 243 242 241 240 238 238 235 235 233 233 232 229 230 230 228 229 232 233 232 231 231 237 237 240 248 250 245 244 238 240 248 248 245 249 248 243 242 245 250 250 253 259 259 256 251 244 244 248 250
318 318 306 286 273 271 272 270 268 266 263 262 261 259 257 257 258 261 265 268 272 274 275 275 273 271 269 267 263 258 255 251 251 247 243 240 240 239 239 239 238 237 235 233 232 230 230 226 224 226 222 225 230 228 228 229 230 230 230 235 240 240 243 251 252 248 248 248 249 252 253 251 250 249 249 248 251 255 253 255 257 255 254 251 247 248 251 252
316 320 319 306 287 276 273 271 269 267 265 263 261 261 259 258 260 262 265 269 272 273 275 275 274 272 269 266 260 256 253 246 244 242 236 233 233 232 232 233 233 231 228 226 225 224 226 224 225 227 227 232 235 234 231 226 230 232 231 239 245 245 248 253 255 252 251 253 254 254 253 252 253 252 254 254 253 255 253 250 252 252 253 252 249 248 252 255
315 317 320 318 307 290 279 274 271 269 267 265 262 262 260 260 261 262 264 267 270 272 274 274 275 273 270 265 258 252 246 238 235 235 229 223 223 223 223 224 224 224 221 220 221 223 223 224 227 227 229 232 233 236 233 228 236 241 240 247 254 253 251 251 253 254 254 255 254 252 253 254 256 255 256 257 253 252 251 250 252 252 252 254 253 249 253 258
317 317 317 317 316 307 294 282 274 271 268 266 264 263 261 260 260 261 263 266 268 271 272 273 273 272 270 264 258 253 242 235 233 234 230 221 217 218 218 218 219 220 220 222 223 224 225 225 226 228 229 232 235 237 236 236 243 249 248 252 257 254 254 254 255 257 255 254 253 252 255 256 258 258 257 254 251 251 250 251 253 253 252 255 256 254 255 259
319 318 317 315 315 313 307 297 284 275 269 267 265 263 262 260 259 259 261 264 266 269 271 271 272 271 268 262 260 256 247 240 237 238 235 227 223 222 221 220 221 223 224 226 227 228 230 231 233 235 235 238 240 239 242 246 248 253 254 255 260 258 257 257 256 257 256 256 255 254 255 256 258 258 254 251 251 250 247 248 251 253 253 255 257 258 259 260
320 318 317 315 313 311 309 305 298 288 277 270 266 264 262 260 259 259 258 261 263 266 268 269 270 268 264 262 263 259 255 250 246 244 241 236 232 229 229 228 227 229 229 231 233 234 235 237 239 240 241 243 245 247 251 253 251 255 257 256 260 263 267 269 259 252 253 257 259 257 255 257 262 263 255 250 250 250 249 249 251 253 253 256 258 260 263 263
319 318 317 314 312 309 306 304 301 298 291 281 273 267 264 261 259 258 257 258 259 261 263 265 266 265 264 263 261 257 255 254 252 249 247 245 243 239 238 238 238 238 237 238 239 240 241 242 242 244 246 248 251 254 255 257 255 256 261 262 262 262 266 272 263 255 255 259 257 256 257 257 261 265 259 252 249 247 249 252 252 253 253 255 259 261 263 264
317 316 316 314 312 309 306 303 299 297 295 292 286 278 272 266 262 259 257 256 256 257 258 260 261 262 262 260 259 258 256 255 254 253 252 252 251 249 248 247 247 247 246 247 246 246 247 247 248 249 251 253 256 258 258 260 260 259 261 262 264 266 262 263 267 265 263 263 258 252 256 257 251 256 259 257 252 243 245 253 253 253 255 255 259 261 262 264
314 314 313 312 311 309 306 303 299 295 292 291 290 287 283 277 272 266 262 258 256 256 256 257 259 260 258 258 261 262 259 257 256 256 255 254 255 255 255 253 253 253 253 253 252 252 252 252 253 253 255 257 257 258 259 260 264 268 270 263 259 263 257 264 277 273 263 262 260 254 253 254 251 254 259 260 259 253 250 256 257 255 256 257 260 262 262 264
309 310 310 309 308 306 305 303 300 296 292 289 286 284 283 282 279 275 271 267 263 260 259 259 258 258 256 257 261 260 259 257 257 259 258 257 258 257 257 257 256 256 256 256 256 255 255 255 255 256 257 257 257 257 258 256 252 258 269 264 257 252 244 244 266 272 267 263 262 260 254 250 250 257 264 266 262 259 259 259 259 259 257 257 260 263 263 265
304 304 304 304 303 302 302 302 301 300 296 292 286 281 278 278 277 277 276 272 269 266 264 263 261 260 258 257 258 259 259 258 257 257 258 258 258 257 257 257 257 256 256 257 256 256 256 256 256 258 257 254 255 253 250 249 247 250 253 254 256 255 251 249 253 261 266 267 268 266 257 251 251 253 264 270 266 258 259 263 262 261 260 258 258 261 264 266
299 299 298 298 299 298 298 297 298 299 298 296 291 285 280 278 276 275 274 272 271 269 267 266 264 264 263 261 261 261 261 259 257 256 255 256 256 256 256 255 256 256 257 256 254 255 257 258 257 257 256 256 256 252 252 257 260 261 256 250 252 250 249 251 251 257 263 266 270 271 265 257 254 254 258 268 271 264 259 261 262 262 263 263 260 259 262 265
295 294 294 294 294 294 294 293 292 292 293 293 292 291 287 283 279 275 273 272 271 269 266 265 265 267 267 265 263 262 262 261 259 257 255 255 255 255 254 255 256 255 255 255 256 257 256 257 258 254 254 257 259 258 259 263 262 260 254 249 250 254 260 257 253 262 268 266 266 269 271 266 259 259 259 262 270 271 264 260 261 262 262 263 264 264 263 264
292 292 292 291 290 290 290 290 289 287 286 286 286 288 287 285 281 278 276 274 271 269 267 265 264 266 267 266 264 264 265 262 258 256 256 256 256 257 256 255 258 258 258 257 259 261 258 256 254 253 256 258 260 262 261 259 256 255 253 250 251 256 264 264 261 264 266 265 266 267 270 269 263 261 262 262 267 272 271 264 259 260 261 262 264 265 265 265
289 289 289 288 287 287 287 286 285 284 283 282 283 283 282 282 280 279 278 275 272 270 269 267 266 267 267 266 266 264 262 262 260 255 254 256 256 257 258 258 259 261 262 261 261 260 258 257 254 254 258 257 257 260 261 260 257 255 254 253 255 257 259 263 265 264 264 266 271 272 268 265 265 263 263 263 263 268 272 270 264 259 260 262 263 263 264 265
287 287 285 285 284 284 283 282 281 280 279 279 280 279 278 278 277 277 278 278 276 271 270 270 268 270 271 270 267 263 260 263 265 260 254 256 258 257 259 258 257 259 261 263 264 263 259 257 257 258 256 254 257 260 262 262 260 259 258 257 256 257 255 253 256 262 269 276 276 273 269 266 266 264 261 261 263 264 267 269 267 261 259 260 262 263 262 263
287 286 285 283 282 281 280 279 278 277 276 276 276 276 276 276 275 276 277 278 278 274 271 272 271 273 275 274 270 267 265 265 267 266 258 255 257 256 257 257 257 260 260 256 260 268 266 259 258 259 258 259 261 263 263 262 262 264 265 263 261 259 256 252 256 265 275 281 275 269 269 270 267 263 263 263 263 263 262 265 266 264 260 259 260 261 261 261
289 288 288 286 283 282 280 278 277 276 275 275 273 274 274 275 275 275 276 278 280 278 272 269 272 276 277 278 275 271 269 268 269 271 266 259 257 257 258 258 257 256 257 256 257 263 264 261 258 258 261 263 264 265 266 266 267 268 268 266 263 261 259 257 259 268 276 276 271 271 272 272 270 267 268 270 273 271 264 260 262 262 261 260 258 259 260 260
294 294 294 294 292 290 287 285 284 283 282 280 279 278 276 276 276 276 278 280 279 277 275 275 279 282 281 280 277 272 271 272 274 274 270 264 260 260 259 258 257 253 253 259 257 252 260 268 268 265 267 268 267 267 267 267 267 267 267 266 261 257 263 266 262 266 274 271 268 272 275 276 273 268 269 276 282 279 273 266 261 259 261 262 260 259 260 260
302 304 306 307 306 307 307 305 306 306 304 300 297 293 288 285 282 281 280 280 277 277 281 285 286 286 286 283 277 274 275 275 274 272 270 267 264 264 259 258 261 254 253 257 253 248 256 268 274 274 273 271 270 270 267 265 265 264 263 262 259 258 266 273 270 269 275 271 268 273 278 279 275 271 274 275 268 273 284 283 271 260 257 261 262 262 262 262
313 315 317 319 318 321 323 325 331 332 329 326 321 316 312 304 295 289 281 278 280 283 288 291 290 290 288 284 279 276 275 273 272 273 272 269 266 265 263 263 263 257 260 264 261 258 257 263 271 275 273 270 269 272 271 267 265 265 267 267 264 267 274 276 276 280 280 275 276 280 279 276 277 280 282 278 278 285 289 284 276 270 261 257 260 260 263 265
336 342 343 345 345 346 351 353 355 353 350 345 340 335 326 316 313 310 297 290 291 293 297 298 297 296 293 291 288 282 278 274 273 274 273 272 271 270 269 269 267 263 266 269 268 268 265 267 273 273 272 272 271 270 266 265 270 273 275 274 271 276 282 279 279 280 277 279 288 296 288 273 277 282 264 249 279 285 277 269 277 283 274 264 265 264 265 268
12 17 22 25 22 22 22 22 20 16 13 6 360 351 335 330 328 317 306 304 302 300 303 302 302 306 307 306 301 294 292 288 282 279 275 273 272 272 273 273 271 269 270 271 271 269 268 272 276 274 271 270 271 270 264 263 273 278 277 277 279 285 290 289 288 282 280 285 295 300 289 268 273 279 202 208 259 267 267 265 269 281 285 282 280 276 271 271
18 19 28 34 31 34 35 33 30 27 24 17 9 358 349 350 342 324 321 321 310 302 303 304 305 308 308 303 298 295 295 292 291 290 287 284 283 281 279 276 273 272 276 279 277 273 277 279 278 278 275 269 267 267 266 270 274 275 274 274 276 276 272 277 283 287 292 296 298 293 273 256 266 267 226 225 243 251 263 266 266 272 285 292 291 286 279 275
13 18 30 33 30 29 24 18 17 12 8 4 356 350 354 359 351 338 330 321 313 308 305 302 299 299 298 297 296 291 280 278 285 287 286 291 293 284 283 284 279 274 275 276 268 266 275 279 278 282 284 279 274 266 264 272 278 282 280 272 269 260 248 253 262 278 292 297 295 287 256 245 249 255 259 248 243 252 262 271 275 273 282 294 293 289 286 282
40 37 32 23 14 8 3 357 353 349 346 343 336 338 347 348 341 337 327 316 316 316 309 302 300 297 295 295 293 283 273 272 274 275 279 286 282 271 276 284 281 274 270 269 266 261 262 267 274 282 281 277 274 268 258 246 258 280 290 281 268 255 245 248 252 255 262 269 275 270 255 254 256 264 279 276 264 268 267 266 275 279 286 291 287 284 284 283
38 26 8 2 357 353 349 343 338 335 334 332 328 332 339 337 330 326 324 317 314 316 310 303 304 302 297 297 291 277 274 268 266 274 281 283 282 281 278 276 273 268 265 269 272 265 259 259 261 262 257 257 264 270 270 256 246 254 265 267 269 265 254 253 256 253 248 245 248 257 264 270 274 275 278 278 278 280 277 270 272 282 291 291 285 284 281 278
330 333 331 337 338 337 336 333 330 325 324 323 322 324 326 325 321 317 319 316 309 311 309 301 301 300 295 295 275 264 272 268 265 277 283 281 283 285 279 274 273 269 263 263 264 260 259 259 254 250 245 249 259 265 265 262 257 250 243 246 263 272 263 255 258 257 254 251 252 264 271 274 278 278 277 281 286 288 283 276 273 279 287 288 287 289 288 281
301 306 312 317 318 324 324 321 320 319 317 315 315 317 317 314 312 311 315 314 308 307 305 298 293 287 274 262 246 253 273 280 276 275 277 276 275 271 265 262 265 268 266 263 262 264 267 268 263 257 253 255 262 266 263 257 256 258 256 251 255 262 259 259 263 261 258 263 271 277 278 277 277 276 276 280 284 284 275 265 265 263 265 273 279 285 290 291
300 303 305 305 305 313 316 312 313 313 310 310 311 314 313 308 305 308 313 313 309 306 302 296 287 277 269 264 259 251 262 275 277 272 269 268 266 265 264 260 259 266 270 271 273 273 272 271 267 260 259 260 262 267 266 259 257 260 263 260 254 256 260 263 266 267 266 272 278 279 278 277 275 275 281 278 268 273 266 254 263 267 263 267 273 278 282 287
303 302 303 305 302 306 311 310 309 307 307 309 311 311 309 304 301 306 310 309 308 306 300 294 284 278 274 271 268 257 249 257 266 267 265 265 266 268 269 267 267 270 273 274 276 276 274 273 270 266 264 261 258 258 259 263 270 270 267 265 258 254 258 258 258 264 268 273 278 278 275 274 275 277 284 281 265 269 269 262 270 276 271 266 268 274 277 278
303 302 307 310 304 304 307 307 306 305 307 310 309 305 304 304 303 306 308 307 306 304 300 294 286 280 276 272 269 266 261 261 263 265 265 266 268 271 272 269 267 269 273 274 274 274 272 272 271 269 266 263 262 263 264 267 272 268 263 265 262 260 263 264 262 260 261 264 269 272 273 274 276 272 269 266 259 261 266 269 272 275 277 275 274 275 276 274
302 302 307 309 305 304 304 303 302 303 306 308 304 299 300 303 304 304 306 306 303 302 300 295 288 280 276 272 269 268 267 266 266 268 268 268 269 270 270 270 268 268 271 272 273 271 269 269 269 268 268 266 265 265 264 264 266 262 259 258 259 262 262 261 262 264 265 265 263 265 269 270 272 268 260 260 263 258 260 268 267 264 271 276 277 276 276 274
299 301 304 304 303 303 302 301 300 300 302 302 299 297 298 301 300 300 303 304 302 301 299 295 288 280 275 273 271 269 269 268 268 268 269 270 270 265 264 267 270 271 269 270 271 270 268 269 269 268 267 266 264 263 262 263 265 264 263 262 261 262 261 260 263 266 268 268 266 266 267 266 268 267 260 264 269 263 259 263 264 263 264 265 269 270 267 267
297 299 301 301 301 301 300 299 298 298 297 296 295 295 296 299 298 299 301 301 301 301 299 295 289 282 276 273 271 270 270 269 268 268 269 269 267 264 265 268 271 272 270 268 267 268 271 273 271 268 267 266 265 264 263 264 265 264 264 265 264 263 263 263 263 264 266 267 269 271 270 268 269 268 266 270 272 267 263 263 263 266 268 268 270 269 260 254
295 296 297 298 299 299 299 298 297 296 295 296 296 295 296 298 297 297 300 300 300 300 298 294 289 284 280 276 274 272 270 271 271 270 269 266 263 264 268 270 270 271 269 267 266 269 272 273 272 270 268 268 268 267 266 264 261 260 260 260 261 263 263 262 261 264 267 269 272 273 271 270 268 268 271 273 270 268 267 266 266 267 268 267 269 268 260 253
293 294 294 295 296 296 297 296 296 295 294 295 296 294 295 297 297 297 298 298 298 297 296 293 288 284 282 280 278 275 273 273 273 272 270 268 265 266 267 268 268 268 268 269 270 272 272 271 271 271 270 268 268 268 267 262 259 261 262 262 262 263 263 264 265 267 271 273 273 273 273 272 269 268 271 271 270 271 270 269 272 271 267 264 265 264 258 253
291 293 294 295 295 295 295 295 294 294 293 293 293 293 294 295 296 297 297 297 294 293 293 291 287 285 284 282 281 279 277 274 273 273 272 270 268 267 267 268 269 268 268 270 271 271 270 269 269 270 269 270 269 268 266 264 264 265 265 264 264 265 265 267 269 270 272 273 271 271 274 275 272 271 270 269 271 272 270 269 271 266 262 262 262 261 257 255
291 292 294 295 295 296 295 295 293 292 292 292 292 293 294 295 295 296 297 296 293 291 290 288 285 285 285 283 281 280 279 276 275 274 273 272 271 268 267 268 270 271 272 273 273 271 270 270 269 269 269 269 269 268 266 265 264 264 264 264 266 267 268 268 269 270 271 270 269 271 272 273 273 273 274 273 273 270 266 266 265 261 260 261 259 258 257 255
292 293 294 295 295 296 296 295 295 294 293 293 294 294 295 295 295 294 294 295 294 292 290 286 285 285 284 284 284 282 280 279 276 273 272 272 272 270 268 267 267 271 277 279 278 276 273 271 270 269 269 269 270 269 268 266 266 265 265 266 268 268 268 266 266 267 268 268 270 273 273 272 273 276 277 277 274 270 267 264 263 261 260 260 257 257 257 256
292 293 294 295 296 296 296 295 295 295 295 294 294 295 295 295 295 293 292 292 293 293 291 288 286 284 282 282 282 282 283 283 278 272 270 270 270 270 272 272 270 271 275 277 278 279 278 276 274 272 270 269 269 269 269 268 269 269 268 269 270 269 267 264 265 268 270 271 273 275 274 272 274 277 278 277 274 272 270 267 264 262 259 258 257 256 256 257
293 294 295 296 296 296 296 295 294 294 294 293 293 294 293 292 292 290 290 292 292 291 290 288 286 285 283 281 280 281 281 280 277 274 274 273 273 273 274 273 273 272 273 275 277 279 280 279 277 277 275 272 273 273 272 270 271 272 271 272 271 269 268 269 271 274 275 275 275 275 273 274 278 282 281 278 274 270 267 265 263 261 258 255 254 254 253 254
293 294 295 296 297 297 297 296 295 294 292 292 294 295 293 293 292 289 289 290 290 290 289 286 285 285 284 281 279 278 276 277 279 279 278 277 276 276 275 273 272 271 271 273 275 276 278 278 278 279 278 276 277 277 276 275 275 273 273 274 274 275 277 277 276 275 275 277 277 276 278 282 286 284 279 274 271 268 266 264 261 259 257 254 253 252 251 250
293 294 295 296 296 296 296 295 295 295 293 292 294 294 293 294 293 291 291 289 288 288 288 286 286 285 284 281 278 277 277 280 283 281 277 275 273 273 275 275 273 272 272 273 274 274 275 276 278 279 279 279 279 279 280 279 276 275 277 280 282 282 281 278 277 277 279 280 279 279 282 284 283 278 273 269 268 267 265 262 260 260 259 257 255 254 252 251